Location: Buffign�court
(47.8126°N, 6.0176°E)
Time: 14:05:43
(UTC+00:00)

ARIANE 5 R/B - Pass Details

Date: 16 June 2021
Orbit: 620 x 656 km, 98.1° (Epoch: 28 July)

Event Time Altitude Azimuth Distance (km) Brightness Sun altitude
Exits shadow 21:43:40 10° 203° (SSW) 2,006 4.8 -14.4°
Maximum altitude 21:47:29 30° 265° (W) 1,161 4.1 -14.7°
Drops below altitude 10° 21:51:27 10° 326° (NNW) 2,060 6.6 -15.0°
Sets 21:53:55 0° 338° (NNW) 2,981 8.0 -15.1°
